Location: Table Mountain
(47.2500°N, 120.5778°W)
Time: 00:20:42
(UTC-07:00)

Tiangong 1 - Pass Details

Date: 10 October 2017
Orbit: 293 x 320 km, 42.8° (Epoch: 19 October)

Event Time Altitude Azimuth Distance (km) Brightness Sun altitude
Rises 19:22:14 0° 255° (WSW) 2,035 6.4 -10.8°
Reaches altitude 10° 19:24:19 10° 244° (WSW) 1,200 4.6 -11.1°
Maximum altitude 19:26:45 30° 180° (S) 584 1.9 -11.6°
Enters shadow 19:28:10 18° 129° (SE) 843 2.3 -11.8°
